Home   Weather   Washington DC   Past weeks

Flag for USA Past Weather in Washington DC, USA — Yesterday and Last 2 Weeks

Now
47 °F

Fog.


Feels Like: 44 °F
Forecast: 47 / 50 °F
Wind: 6 mph from Northeast

Location: Reagan National Airport

Current Time: Jan 22, 2017 at 1:05:18 am

Latest Report: Jan 22, 2017 at 12:07 am


Visibility: 5 mi

Pressure: 29.76 "Hg

Humidity: 100%

Dew Point: 47 °F

Location of Washington DCLocation

Past Weather in Washington DC — Graph

°F

Washington DC Temperature Yesterday

Maximum temperature yesterday: 50 °F (at 1:52 pm)
Minimum temperature yesterday: 47 °F (at 12:52 am)
Average temperature yesterday: 48 °F

High & Low Weather Summary for the Past Weeks

 TemperatureHumidityPressure
High72 °F (Jan 12, 2:52 pm)100% (Jan 17, 2:33 pm)30.80 "Hg (Jan 17, 2:33 pm)
Low15 °F (Jan 8, 6:52 am)29% (Jan 15, 1:52 pm)29.76 "Hg (Jan 21, 11:52 pm)
Average41 °F71%30.26 "Hg
* Reported Jan 6 11:52 pm — Jan 21 11:52 pm, Washington DC, Weather by CustomWeather, © 2017

Note: Actual official high and low records may vary slightly from our data, if they occured in-between our weather recording intervals... More about our weather records

Advertising

Washington DC Weather History for the Previous 24 Hours

Scroll right to see more
 ConditionsComfort  
Time TempWeatherWind HumidityBarometerVisibility
11:52 pm
Sat, Jan 21
48 °FFog.6 mph100%29.76 "Hg5 mi
10:52 pm48 °FLow clouds.6 mph100%29.78 "Hg8 mi
10:34 pm49 °FFog.6 mph97%29.78 "Hg4 mi
10:00 pm48 °FFog.5 mph100%29.80 "Hg5 mi
9:03 pm49 °FFog.5 mph97%29.81 "Hg1 mi
8:06 pm48 °FFog.No wind100%29.81 "Hg5 mi
6:52 pm49 °FFog.3 mph97%29.81 "Hg1 mi
6:31 pm49 °FFog.5 mph97%29.81 "Hg4 mi
5:52 pm50 °FLow clouds.5 mph93%29.83 "Hg10 mi
5:23 pm50 °FLow clouds.6 mph93%29.82 "Hg10 mi
4:52 pm50 °FLow clouds.6 mph96%29.83 "Hg10 mi
4:26 pm50 °FLow clouds.6 mph93%29.82 "Hg10 mi
4:07 pm49 °FLow clouds.6 mph97%29.82 "Hg9 mi
2:52 pm49 °FMore clouds than sun.6 mph97%29.84 "Hg10 mi
1:52 pm50 °FMore clouds than sun.6 mph93%29.85 "Hg10 mi
12:52 pm49 °FMore clouds than sun.6 mph97%29.86 "Hg10 mi
11:52 am49 °FMore clouds than sun.7 mph97%29.89 "Hg8 mi
10:52 am49 °FLow clouds.7 mph97%29.91 "Hg10 mi
9:52 am48 °FFog.8 mph100%29.93 "Hg6 mi
8:52 am48 °FFog.6 mph96%29.91 "Hg5 mi
8:07 am47 °FFog.3 mph100%29.92 "Hg4 mi
7:52 am48 °FFog.5 mph96%29.91 "Hg6 mi
6:52 am48 °FDrizzle. Fog.3 mph100%29.92 "Hg5 mi
6:14 am48 °FDrizzle. Mostly cloudy.3 mph100%29.92 "Hg7 mi
5:52 am48 °FFog.5 mph100%29.92 "Hg6 mi
4:52 am48 °FFog.5 mph96%29.91 "Hg5 mi
4:14 am47 °FFog.5 mph100%29.91 "Hg4 mi
3:52 am48 °FMostly cloudy.6 mph100%29.92 "Hg7 mi
2:52 am48 °FDrizzle. Fog.7 mph96%29.93 "Hg6 mi
2:01 am47 °FDrizzle. Fog.6 mph100%29.92 "Hg3 mi
1:31 am47 °FDrizzle. Fog.6 mph100%29.92 "Hg2 mi
Weather by CustomWeather, © 2017

See weather overviewHow to use our weather pages